Weather History for South Lake Tahoe, CA

Change the Weather History Date:

Saturday, August 24, 2013

  Actual Average Record
Temperature  
Mean Temperature 56 °F 59 °F  
Max Temperature 75 °F 79 °F 89 °F (1988)
Min Temperature 36 °F 39 °F 24 °F (1973)
Degree Days  
Heating Degree Days 9 6  
Month to date heating degree days 108 112  
Since 1 June heating degree days 339 560  
Since 1 July heating degree days 145 250  
Cooling Degree Days 0 0  
Month to date cooling degree days 9 7  
Year to date cooling degree days 98 26  
Since 1 June cooling degree days 98 26  
Growing Degree Days 5 (Base 50)    
Moisture  
Dew Point 32 °F    
Average Humidity 47    
Maximum Humidity 76    
Minimum Humidity 17    
Precipitation  
Precipitation 0.00 in - 0.15 in (1967)
Month to date precipitation 0.51  
Year to date precipitation 6.44  
Sea Level Pressure  
Sea Level Pressure 30.00 in    
Wind  
Wind Speed 5 mph (SSW)    
Max Wind Speed 20 mph    
Max Gust Speed 26 mph    
Visibility 3 miles    
Events      
T = Trace of Precipitation, MM = Missing Value Source: NWS Daily Summary

Daily Weather History Graph

Daily Weather History Graph

Search for Another Location

Airport:

Trip Planner

Search our weather history database for the weather conditions in past years. The results will help you decide how hot, cold, wet, or windy it might be!

Date:

Astronomy

Aug. 24, 2013 Rise Set
Actual Time 6:22 AM PDT 7:41 PM PDT
Civil Twilight 5:54 AM PDT 8:09 PM PDT
Nautical Twilight 5:20 AM PDT 8:42 PM PDT
Astronomical Twilight 4:45 AM PDT 9:17 PM PDT
Moon 9:42 PM PDT (8/24) 10:24 AM PDT (8/24)
Length of Visible Light 14h 15m
Length of Day
13h 19m
Waning Gibbous, 83% of the Moon is Illuminated
Aug 24
Waning Gibbous
Aug 28
Last Quarter
Sep 5
New
Sep 12
First Quarter
Sep 19
Full

Hourly Weather History & Observations

Time (PDT) Temp. Windchill Dew Point Humidity Pressure Visibility Wind Dir Wind Speed Gust Speed Precip Events Conditions
12:53 AM 45.0 °F 43.5 °F 36.0 °F 71% 29.93 in 5.0 mi South 3.5 mph - N/A   Haze
1:32 AM 44.6 °F - 35.6 °F 71% 30.08 in 4.0 mi Calm Calm - N/A   Haze
1:53 AM 44.1 °F 42.5 °F 35.1 °F 71% 29.93 in 4.0 mi South 3.5 mph - N/A   Haze
2:53 AM 42.1 °F 40.2 °F 34.0 °F 73% 29.93 in 3.0 mi South 3.5 mph - N/A   Haze
3:25 AM 42.8 °F - 33.8 °F 70% 30.08 in 2.5 mi Calm Calm - N/A   Haze
3:53 AM 41.0 °F 38.0 °F 33.1 °F 73% 29.94 in 2.0 mi South 4.6 mph - N/A   Haze
4:21 AM 39.2 °F 35.9 °F 32.0 °F 75% 30.07 in 1.8 mi South 4.6 mph - N/A   Haze
4:53 AM 39.0 °F 35.7 °F 30.9 °F 73% 29.94 in 1.5 mi SSW 4.6 mph - N/A   Haze
5:53 AM 37.0 °F 34.5 °F 30.0 °F 76% 29.94 in 1.2 mi South 3.5 mph - N/A   Haze
6:35 AM 37.4 °F 34.9 °F 30.2 °F 75% 30.08 in 0.5 mi South 3.5 mph - N/A   Haze
6:53 AM 37.0 °F - 30.0 °F 76% 29.95 in 0.5 mi Calm Calm - N/A   Haze
7:53 AM 41.0 °F 39.0 °F 32.0 °F 70% 29.97 in 0.8 mi South 3.5 mph - N/A   Haze
8:49 AM 51.8 °F - 35.6 °F 54% 30.08 in 1.0 mi Calm Calm - N/A   Haze
8:53 AM 53.1 °F - 36.0 °F 52% 29.94 in 1.0 mi Calm Calm - N/A   Haze
9:44 AM 66.2 °F - 26.6 °F 23% 30.08 in 2.0 mi South 6.9 mph - N/A   Haze
9:53 AM 66.9 °F - 25.0 °F 21% 29.92 in 2.0 mi SSW 10.4 mph 17.3 mph N/A   Haze
10:04 AM 68.0 °F - 24.8 °F 20% 30.08 in 1.8 mi South 10.4 mph - N/A   Haze
10:34 AM 69.8 °F - 24.8 °F 18% 30.08 in 1.5 mi SSW 9.2 mph 17.3 mph N/A   Haze
10:53 AM 69.1 °F - 25.0 °F 19% 29.92 in 1.5 mi South 12.7 mph 19.6 mph N/A   Haze
11:42 AM 69.8 °F - 24.8 °F 18% 30.08 in 2.0 mi Variable 6.9 mph 20.7 mph N/A   Haze
11:53 AM 71.1 °F - 26.1 °F 19% 29.93 in 2.5 mi SSW 8.1 mph 21.9 mph N/A   Haze
12:47 PM 71.6 °F - 24.8 °F 17% 30.07 in 3.0 mi SW 8.1 mph 18.4 mph N/A   Haze
12:48 PM 72.0 °F - 25.0 °F 17% 29.92 in 3.0 mi SSW 10.4 mph 18.4 mph N/A   Haze
1:05 PM 71.6 °F - 24.8 °F 17% 30.07 in 3.0 mi Variable 6.9 mph 19.6 mph N/A   Haze
1:53 PM 73.9 °F - 26.1 °F 17% 29.92 in 4.0 mi Variable 6.9 mph 24.2 mph N/A   Haze
2:35 PM 73.4 °F - 28.4 °F 19% 30.06 in 2.5 mi SW 10.4 mph 25.3 mph N/A   Haze
2:53 PM 73.0 °F - 28.9 °F 20% 29.91 in 2.0 mi Variable 6.9 mph 17.3 mph N/A   Haze
3:06 PM 73.4 °F - 28.4 °F 19% 30.06 in 2.0 mi SSW 13.8 mph 20.7 mph N/A   Haze
3:42 PM 73.4 °F - 30.2 °F 20% 30.05 in 2.5 mi SSW 9.2 mph 23.0 mph N/A   Haze
3:53 PM 72.0 °F - 30.9 °F 22% 29.91 in 2.5 mi SSW 12.7 mph 18.4 mph N/A   Haze
3:59 PM 71.6 °F - 30.2 °F 22% 30.05 in 3.0 mi SSW 8.1 mph 18.4 mph N/A   Haze
4:48 PM 71.6 °F - 30.2 °F 22% 30.04 in 5.0 mi SSW 11.5 mph 23.0 mph N/A   Haze
4:53 PM 70.0 °F - 32.0 °F 25% 29.92 in 5.0 mi SSW 8.1 mph 23.0 mph N/A   Haze
5:53 PM 69.1 °F - 35.1 °F 29% 29.93 in 8.0 mi SSW 12.7 mph - N/A   Partly Cloudy
6:53 PM 64.9 °F - 37.0 °F 36% 29.95 in 9.0 mi SSW 10.4 mph - N/A   Mostly Cloudy
7:53 PM 62.1 °F - 37.9 °F 41% 29.96 in 10.0 mi South 8.1 mph - N/A   Mostly Cloudy
8:53 PM 60.1 °F - 37.9 °F 44% 29.96 in 10.0 mi South 6.9 mph - N/A   Overcast
9:53 PM 57.9 °F - 37.9 °F 47% 29.93 in 10.0 mi SSW 4.6 mph - N/A   Partly Cloudy
10:53 PM 55.0 °F - 37.9 °F 53% 29.93 in 7.0 mi Calm Calm - N/A   Overcast
11:16 PM 53.6 °F - 37.4 °F 54% 30.10 in 4.0 mi Calm Calm - N/A   Haze
11:33 PM 53.6 °F - 37.4 °F 54% 30.10 in 2.5 mi Calm Calm - N/A   Haze
11:51 PM 51.8 °F - 37.4 °F 58% 30.10 in 4.0 mi Calm Calm - N/A   Haze
11:53 PM 51.1 °F - 37.9 °F 61% 29.94 in 4.0 mi Calm Calm - N/A   Haze